Regional Weather Roundup
Issued by NWS

Home | Current Version | Previous Version | Graphics & Text | Print | Product List | Glossary Off
Versions: 1 2 3 4 5 6 7 8 9 10 11 12 13 14 15 16 17 18 19 20 21 22 23 24 25 26 27 28 29 30 31 32 33 34 35 36 37 38 39 40 41 42 43 44 45 46 47 48 49 50

000
ASUS43 KMKX 300600
RWRWI

WISCONSIN REGIONAL WEATHER ROUNDUP
NATIONAL WEATHER SERVICE MILWAUKEE/SULLIVAN WI
100 AM CDT TUE AUG 30 2016

NOTE: "FAIR" INDICATES FEW OR NO CLOUDS BELOW 12,000 FEET WITH NO
SIGNIFICANT WEATHER AND/OR OBSTRUCTIONS TO VISIBILITY.

WIZ001-002-006>008-014>016-023>028-300700-
NORTHWEST WISCONSIN

CITY           SKY/WX    TMP DP  RH WIND       PRES   REMARKS
SUPERIOR ARPT  FAIR      65  65  98 S7        30.13R
ASHLAND        FAIR      65  63  93 W3        30.15R
6HR MIN TEMP:  65; 6HR MAX TEMP:  80; 6HR PCP:  0.31;

HAYWARD        FAIR      66  63  90 SW5       30.17R
6HR MIN TEMP:  66; 6HR MAX TEMP:  77; 6HR PCP:  0.23;

SIREN          FAIR      66  64  94 SW3       30.18R
CUMBERLAND     LGT RAIN  63  61  94 S12       30.19R
RICE LAKE      LGT RAIN  64  63  96 S8        30.22R
CHETEK         NOT AVBL
LADYSMITH      RAIN      70  61  72 W7        30.24R
EAU CLAIRE     NOT AVBL
MENOMONIE      FAIR      68  65  92 CALM      30.22R
6HR MIN TEMP:  68; 6HR MAX TEMP:  81; 6HR PCP:  0.02;

NEW RICHMOND   LGT RAIN  67  67  98 CALM      30.21S
OSCEOLA        RAIN      67  67 100 SE8       30.22S
$$

WIZ003>005-009-010-017-018-300700-
NORTH CENTRAL WISCONSIN

CITY           SKY/WX    TMP DP  RH WIND       PRES   REMARKS
MANITOWISH WTR NOT AVBL
ARBOR VITAE    FAIR      72  70  93 CALM      30.18F
WOODRUFF       FAIR      72  70  93 CALM      30.18F
RHINELANDER    MOCLDY    72  72 100 W7        30.19S
6HR MIN TEMP:  70; 6HR MAX TEMP:  78;

EAGLE RIVER    LGT RAIN  69  69 100 CALM      30.16F
LAND O LAKES   LGT RAIN  70  69  97 W3        30.16F
PHILLIPS       TSTM      68  65  90 W7G18     30.19R
6HR MIN TEMP:  68; 6HR MAX TEMP:  76; 6HR PCP:  0.09;

TOMAHAWK       MOCLDY    70  68  95 CALM      30.18F
MEDFORD        MOCLDY    71  71 100 SW8       30.19S
MERRILL        FAIR      71  71 100 W5        30.19S
$$

WIZ029-030-035-036-043>047-300700-
CENTRAL WISCONSIN

CITY           SKY/WX    TMP DP  RH WIND       PRES   REMARKS
WAUSAU         FAIR      71  69  93 W3        30.16F
6HR MIN TEMP:  71; 6HR MAX TEMP:  79;

MOSINEE        FAIR      68  68 100 SW6       30.19S
MARSHFIELD     FAIR      71  68  90 W5        30.18S FOG
6HR MIN TEMP:  69; 6HR MAX TEMP:  78;

STEVENS POINT  FAIR      69  68  98 CALM      30.18F
WAUPACA        FAIR      70  70  99 CALM      30.17F
WAUTOMA        FAIR      66  66 100 CALM      30.18S
6HR MIN TEMP:  65; 6HR MAX TEMP:  78;

WISC RAPIDS    FAIR      69  69 100 W5        30.19S
6HR MIN TEMP:  67; 6HR MAX TEMP:  77;

CAMP DOUGLAS   FAIR      64  64 100 CALM      30.18S FOG
$$

WIZ011>013-019>022-031-037>040-048>050-300700-
NORTHEAST WISCONSIN

CITY           SKY/WX    TMP DP  RH WIND       PRES   REMARKS
ANTIGO         FAIR      69  69 100 W3        30.18F
SHAWANO        FAIR      73  69  87 CALM      30.15F
OCONTO         NOT AVBL
STURGEON BAY   FAIR      72  69  90 SW7       30.15F
6HR MIN TEMP:  69; 6HR MAX TEMP:  74;

GREEN BAY      FAIR      69  69 100 S3        30.15F
6HR MIN TEMP:  67; 6HR MAX TEMP:  78;

MANITOWOC      NOT AVBL
APPLETON       FAIR      68  68 100 CALM      30.17R
CLINTONVILLE   FAIR      70  68  94 CALM      30.15F
OSHKOSH        FAIR      67  65  93 SW5       30.17S
6HR MIN TEMP:  67; 6HR MAX TEMP:  78;

$$

WIZ032>034-041-042-053>061-300700-
SOUTHWEST WISCONSIN

CITY           SKY/WX    TMP DP  RH WIND       PRES   REMARKS
LA CROSSE      FAIR      71  71 100 E3        30.18R
6HR MIN TEMP:  71; 6HR MAX TEMP:  81;

SPARTA         FOG       64  64 100 CALM      30.19R VSB 1/4
VIROQUA        FAIR      70  70 100 SW3       30.19F
6HR MIN TEMP:  68; 6HR MAX TEMP:  76;

BOSCOBEL       FOG       72  71  97 CALM      30.18S VSB 1/4
6HR MIN TEMP:  71; 6HR MAX TEMP:  80;

PRAIRIE DU CHI CLOUDY    72  70  95 CALM      30.17S FOG
PLATTEVILLE    CLOUDY    71  71 100 CALM      30.20R
$$

WIZ056-057-062-063-064-067-068-300700-
SOUTH CENTRAL WISCONSIN

CITY           SKY/WX    TMP DP  RH WIND       PRES   REMARKS
REEDSBURG      NOT AVBL
BARABOO/DELLS  FAIR      69  67  94 CALM      30.18S FOG
LONE ROCK      FOG       70  70 100 CALM      30.18S VSB 3/4
MINERAL POINT  FAIR      72  72 100 CALM      30.21R FOG
MADISON        FAIR      72  68  87 MISG      30.18S
6HR MIN TEMP:  70; 6HR MAX TEMP:  80;

MIDDLETON      FAIR      72  70  96 CALM      30.20S
WATERTOWN      FAIR      69  69 100 CALM      30.19F
MONROE         FAIR      70  68  94 S5        30.21R
JANESVILLE     FAIR      70  68  94 CALM      30.19S FOG
$$

WIZ051-052-058>065-066-070>072-300700-
SOUTHEAST WISCONSIN

CITY           SKY/WX    TMP DP  RH WIND       PRES   REMARKS
MILWAUKEE      MOCLDY    74  69  85 SW6       30.19S
6HR MIN TEMP:  73; 6HR MAX TEMP:  78;

WAUKESHA       FAIR      68  64  88 CALM      30.21R
MILWAUKEE/TIMM FAIR      70  64  83 S3        30.20R
RACINE         FAIR      71  69  93 CALM      30.20F
6HR MIN TEMP:  70; 6HR MAX TEMP:  77;

BURLINGTON     FAIR      65  65  99 CALM      30.19F
KENOSHA        FAIR      70  68  93 CALM      30.19S FOG
6HR MIN TEMP:  68; 6HR MAX TEMP:  77;

FOND DU LAC    FAIR      67  66  97 S6        30.19R
6HR MIN TEMP:  65; 6HR MAX TEMP:  76; 6HR PCP: TRACE;

SHEBOYGAN      FAIR      65  63  93 SW3       30.19R
6HR MIN TEMP:  64; 6HR MAX TEMP:  73;

WEST BEND      FAIR      66  64  94 CALM      30.20R
JUNEAU         FAIR      70  68  93 S6        30.21R
$$

LSZ147-162-300700-
LAKE SUPERIOR

STATION/POSITION TIME  TEMP    WIND        PRES    WAVE
                       AIR SEA DIR/SP/G            HT/PER
                 (UTC) (F)     (DEG/KT/KT) (MB)    (FT/S)
W MID LAKE BUOY  0450   71 68  250/ 19/ 25 1018.3R   0
DEVILS ISLAND    0500   69     220/  6/  7 1019.0F
PORT WING        0500   67     190/  4/  5 1019.3F
SAXON HARBOR     0520   69     280/  1/ 12 1019.6R
$$

LMZ867-665-643>646-300700-
LAKE MICHIGAN

STATION/POSITION TIME  TEMP    WIND        PRES    WAVE
                       AIR SEA DIR/SP/G            HT/PER
                 (UTC) (F)     (DEG/KT/KT) (MB)    (FT/S)
CHAMBERS ISLAND  0500   73     190/  4/ 13 1020.3R
S GREEN BAY BUOY 0400   75 73  200/ 10/ 14 1020.1
N MID LAKE BUOY  0450   72 71  210/ 14/ 17 1019.7R   2/ 3
NORTHPORT PIER   0500   72     200/  2/  5 1020.3
SISTER BAY       0507   75     240/ 11/ 12   N/A
ALGOMA LAKESHORE 0330          210/  9/ 10   N/A
KEWAUNEE LAKESHO 0500   68      CALM  /  3 1020.8R
SHEBOYGAN LAKESH 0500   71     250/  3/  4 1021.1F
PORT WASHINGTON  0500   71     230/  2/  4 1022.4S
ATWATER BUOY     0500   68     160/  4/  4   N/A
MILWAUKEE LAKESH 0510   73     190/  6/  7   N/A
S MID LAKE BUOY  0450   75 76  110/  2/  4 1021.2S   0
KENOSHA   LAKESH 0500   75     230/  2/  2 1021.7S
$$

TC  - TEMPERATURE IN CELSIUS
VSB - VISIBILITY IN STATUTE MILES
WCI - WIND CHILL INDEX
HX  - HEAT INDEX




USA.gov is the U.S. government's official web portal to all federal, state and local government web resources and services.